Flag for Austria Weather past 2 weeks in Graz, Styria, Austria

30 °F

Light freezing rain. Mostly cloudy.

Feels Like: 30 °F
Forecast: 27 / 41 °F
Wind: 1 mph from North

Location: Graz-Thalerhof-Flughafen

Current Time: Nov 26, 2015 at 7:10:46 AM

Latest Report: Nov 26, 2015 at 6:20 AM

Visibility: 2 mi

Pressure: 29.74 "Hg

Humidity: 93%

Dew point: 28 °F

Location of GrazLocation

Historic Weather in Graz — Graph


Graz temperature yesterday

Maximum temperature yesterday: 34 °F (at 1:20 PM)
Minimum temperature yesterday: 19 °F (at 4:20 AM)
Average temperature yesterday: 28 °F

Past Weeks' High & Low Weather Summary

High72 °F (Nov 11, 12:50 PM)100% (Nov 11, 6:20 AM)30.39 "Hg (Nov 11, 6:20 AM)
Low19 °F (Nov 25, 4:20 AM)35% (Nov 16, 1:20 PM)29.33 "Hg (Nov 21, 12:20 AM)
Average42 °F85%30.01 "Hg
* Reported Nov 11 5:20 AM — Nov 26 5:20 AM, Graz, Weather by CustomWeather, © 2015

Note: Actual official high and low records may vary slightly from our data, if they occured in-between our weather recording intervals... More about our weather records


Graz weather history for previous 24 hours

Time TempWeatherWind HumidityBarometerVisibility
5:20 AM
Thu, Nov 26
30 °FLight mixture of precip. Passing clouds.2 mph93%29.71 "Hg2 mi
4:20 AM30 °FLight mixture of precip. Partly cloudy.1 mph93%29.71 "Hg2 mi
3:50 AM30 °FLight mixture of precip. Passing clouds.1 mph100%29.71 "Hg2 mi
3:20 AM30 °FLight snow. Passing clouds.1 mph100%29.71 "Hg2 mi
2:50 AM30 °FLight snow. Passing clouds.2 mph93%29.71 "Hg2 mi
2:20 AM30 °FSnow. Passing clouds.2 mph93%29.71 "Hg2 mi
1:50 AM30 °FSnow. Passing clouds.2 mph100%29.71 "Hg1 mi
1:20 AM30 °FSnow. Partly cloudy.1 mph93%29.71 "Hg1 mi
12:50 AM30 °FSnow. Passing clouds.1 mph93%29.74 "Hg1 mi
12:20 AM30 °FLight snow. Passing clouds.1 mph93%29.74 "Hg2 mi
11:50 PM
Wed, Nov 25
30 °FLight snow. Partly cloudy.1 mph86%29.74 "Hg4 mi
11:20 PM30 °FLight snow. Partly cloudy.No wind86%29.74 "Hg5 mi
10:50 PM30 °FPartly cloudy.1 mph86%29.74 "HgN/A
10:20 PM30 °FPartly cloudy.2 mph86%29.74 "HgN/A
9:50 PM30 °FPartly cloudy.2 mph86%29.77 "HgN/A
9:20 PM30 °FPartly cloudy.2 mph86%29.77 "HgN/A
8:50 PM30 °FPartly cloudy.1 mph86%29.77 "HgN/A
8:20 PM30 °FClear.3 mph86%29.77 "Hg10 mi
7:50 PM30 °FClear.2 mph86%29.77 "Hg10 mi
7:20 PM32 °FClear.2 mph80%29.77 "Hg10 mi
6:50 PM32 °FClear.3 mph80%29.77 "Hg10 mi
6:20 PM30 °FClear.2 mph86%29.77 "Hg10 mi
5:50 PM32 °FClear.2 mph80%29.77 "Hg10 mi
5:20 PM32 °FClear.3 mph80%29.77 "Hg10 mi
4:50 PM32 °FClear.5 mph80%29.80 "Hg10 mi
4:20 PM32 °FPassing clouds.1 mph80%29.80 "HgN/A
3:50 PM32 °FPartly sunny.1 mph75%29.80 "HgN/A
3:20 PM32 °FPartly sunny.1 mph75%29.83 "HgN/A
2:50 PM32 °FPartly sunny.2 mph75%29.83 "HgN/A
2:20 PM34 °FPartly sunny.2 mph70%29.83 "HgN/A
1:50 PM34 °FPartly sunny.2 mph70%29.83 "HgN/A
1:20 PM34 °FPartly sunny.1 mph70%29.86 "HgN/A
12:50 PM32 °FPartly sunny.3 mph75%29.89 "HgN/A
12:20 PM32 °FPartly sunny.5 mph75%29.86 "HgN/A
11:50 AM32 °FPartly sunny.3 mph75%29.89 "HgN/A
11:20 AM32 °FBroken clouds.3 mph75%29.89 "HgN/A
10:50 AM30 °FPartly sunny.2 mph80%29.92 "HgN/A
10:20 AM28 °FSunny.2 mph86%29.92 "Hg10 mi
9:50 AM27 °FSunny.1 mph93%29.92 "Hg10 mi
9:20 AM27 °FPartly sunny.1 mph93%29.95 "Hg6 mi
8:50 AM25 °FPartly sunny.2 mph100%29.95 "Hg4 mi
7:50 AM21 °FIce fog.1 mph100%29.95 "Hg0 mi
Weather by CustomWeather, © 2015

See weather overviewHow to use our weather pages